Location: Bucquoy
(50.1391°N, 2.7097°E)
Time: 22:09:19
(UTC+00:00)

Cosmos 1726 - Pass Details

Date: 06 May 2021
Orbit: 478 x 498 km, 82.5° (Epoch: 20 June)

Event Time Altitude Azimuth Distance (km) Brightness Sun altitude
Rises 01:57:17 0° 349° (NNW) 2,600 6.5 -17.3°
Reaches altitude 10° 01:59:25 10° 348° (NNW) 1,709 5.5 -17.1°
Maximum altitude 02:03:09 83° 263° (W) 506 2.0 -16.8°
Enters shadow 02:04:51 31° 176° (S) 897 3.0 -16.6°
